Tracking 19638 objects as of 20-May-2019
HD Live streaming from Space Station
objects crossing your sky now

GRIFEX

Track GRIFEX now!
10-day predictions
GRIFEX is classified as:


NORAD ID: 40379
Int'l Code: 2015-003D
Perigee: 433.8 km
Apogee: 620.0 km
Inclination: 99.1 °
Period: 95.0 minutes
Semi major axis: 6897 km
RCS: Unknown
Launch date: January 31, 2015
Source: United States (US)
Launch site: AIR FORCE WESTERN TEST RANGE (AFWTR)

Uplink (MHz):
Downlink (MHz): 437.480
Beacon (MHz):
Mode: 19200bps 9600bps GMSK
Call sign: KD8SPS
Status: Active

aabbcc
Your satellite tracking list
Your tracking list is empty




NASA's NSSDC Master Catalog

Two Line Element Set (TLE):
1 40379U 15003D   19139.95025971  .00000720  00000-0  35252-4 0  9993
2 40379  99.1105 108.4347 0134988 206.9629 152.4542 15.15394691237081
Source of the keplerian elements: Caltech